Home > Weather > Zerbst/Anhalt > Past weeks

Flag for Germany Weather for the Past 2 Weeks in Zerbst/Anhalt, Saxony-Anhalt, Germany

Now
37 °F

Passing clouds.


Feels Like: 31 °F
Forecast: 36 / 45 °F
Wind: 8 mph from Southeast

Location: Leipzig-Schkeuditz

Current Time: Feb 13, 2016 at 9:19:33 PM

Latest Report: Feb 13, 2016 at 8:50 PM


Visibility: N/A

Pressure: 29.21 "Hg

Humidity: 81%

Dew point: 32 °F

Location of Zerbst/AnhaltLocation

Historic Weather in Zerbst/Anhalt — Graph

°F

Zerbst/Anhalt Temperature Yesterday

Maximum temperature yesterday: 43 °F (at 12:50 PM)
Minimum temperature yesterday: 28 °F (at 9:50 PM)
Average temperature yesterday: 36 °F

High & Low Weather Summary for the Past Weeks

 TemperatureHumidityPressure
High54 °F (Feb 1, 12:50 PM)100% (Feb 1, 2:50 AM)30.30 "Hg (Feb 1, 2:50 AM)
Low27 °F (Feb 13, 5:50 AM)53% (Feb 3, 3:50 PM)29.00 "Hg (Feb 9, 8:20 PM)
Average42 °F79%29.74 "Hg
* Reported Jan 29 8:20 PM — Feb 13 8:20 PM, Zerbst/Anhalt, Weather by CustomWeather, © 2016

Note: Actual official high and low records may vary slightly from our data, if they occured in-between our weather recording intervals... More about our weather records

Advertising

Zerbst/Anhalt Weather History for the Previous 24 Hours

 ConditionsComfort  
Time TempWeatherWind HumidityBarometerVisibility
8:20 PM
Sat, Feb 13
37 °FPassing clouds.10 mph81%29.21 "HgN/A
7:50 PM36 °FPassing clouds.9 mph87%29.24 "HgN/A
7:20 PM37 °FPassing clouds.9 mph81%29.24 "HgN/A
6:50 PM37 °FPassing clouds.12 mph81%29.24 "HgN/A
6:20 PM37 °FOvercast.8 mph81%29.27 "HgN/A
5:50 PM37 °FPassing clouds.6 mph75%29.27 "HgN/A
5:20 PM37 °FPartly sunny.7 mph75%29.27 "HgN/A
4:50 PM37 °FPartly sunny.7 mph75%29.27 "HgN/A
4:20 PM39 °FPartly sunny.8 mph70%29.30 "HgN/A
3:50 PM41 °FPartly sunny.10 mph66%29.30 "HgN/A
3:20 PM41 °FPartly sunny.12 mph61%29.30 "HgN/A
2:50 PM41 °FPassing clouds.9 mph61%29.30 "HgN/A
2:20 PM41 °FPassing clouds.10 mph61%29.33 "HgN/A
1:50 PM41 °FPassing clouds.8 mph61%29.33 "HgN/A
1:20 PM41 °FPassing clouds.9 mph66%29.36 "HgN/A
12:50 PM39 °FPassing clouds.7 mph65%29.36 "HgN/A
12:20 PM39 °FPassing clouds.8 mph65%29.36 "HgN/A
11:50 AM39 °FPassing clouds.8 mph70%29.39 "HgN/A
11:20 AM37 °FPassing clouds.10 mph75%29.39 "HgN/A
10:50 AM37 °FSunny.7 mph81%29.39 "Hg10 mi
10:20 AM34 °FSunny.7 mph87%29.42 "Hg10 mi
9:50 AM32 °FSunny.6 mph87%29.42 "Hg10 mi
9:20 AM32 °FSunny.7 mph87%29.42 "Hg10 mi
8:50 AM30 °FClear.5 mph93%29.42 "Hg5 mi
8:20 AM27 °FClear.7 mph93%29.42 "Hg4 mi
7:50 AM27 °FClear.7 mph93%29.42 "Hg4 mi
7:20 AM28 °FClear.8 mph93%29.42 "Hg4 mi
6:50 AM28 °FClear.8 mph100%29.42 "Hg5 mi
6:20 AM28 °FClear.6 mph100%29.42 "Hg6 mi
5:50 AM27 °FClear.6 mph93%29.42 "Hg6 mi
5:20 AM28 °FClear.7 mph100%29.42 "Hg5 mi
4:50 AM28 °FClear.7 mph93%29.42 "Hg5 mi
4:20 AM28 °FClear.6 mph100%29.45 "Hg6 mi
3:20 AM28 °FClear.9 mph93%29.45 "Hg10 mi
2:20 AM28 °FClear.8 mph100%29.45 "Hg10 mi
1:50 AM30 °FClear.9 mph93%29.45 "Hg10 mi
1:20 AM30 °FClear.8 mph93%29.45 "Hg10 mi
12:50 AM30 °FClear.8 mph93%29.47 "Hg10 mi
12:20 AM30 °FClear.8 mph93%29.47 "Hg10 mi
11:50 PM
Fri, Feb 12
30 °FClear.7 mph93%29.47 "Hg10 mi
11:20 PM30 °FClear.8 mph93%29.47 "Hg10 mi
10:20 PM28 °FClear.8 mph93%29.47 "Hg10 mi
9:50 PM28 °FClear.9 mph93%29.47 "Hg10 mi
9:20 PM32 °FClear.8 mph93%29.47 "Hg10 mi
Weather by CustomWeather, © 2016

See weather overviewHow to use our weather pages